Location: Schommer Observatory
(40.5200°N, 74.4500°W)
Time: 08:45:35
(UTC-04:00)

OTV 5 (USA 277) - Pass Details

Date: 13 October 2017
Orbit: 404 x 417 km, 43.0° (Epoch: 07 September)

Event Time Altitude Azimuth Distance (km) Brightness Sun altitude
Rises 20:24:16 0° 274° (W) 2,354 ? -24.3°
Reaches altitude 10° 20:26:24 10° 279° (W) 1,491 ? -24.7°
Enters shadow 20:28:29 32° 297° (WNW) 737 ? -25.1°
